Location: Lake Zurich
(42.1970°N, 88.0930°W)
Time: 14:23:39
(UTC-06:00)

Daily predictions for brighter satellites

Satellite Brightness Start Highest point End
(mag) Time Altitude Azimuth Time Altitude Azimuth Time Altitude Azimuth
Cosmos 1634 Rocket 4.0 17:10:31 10° N 17:16:41 64° E 17:22:46 10° SSE
BREEZE-M DEB (TANK) 4.3 17:15:07 10° WNW 17:19:20 46° SW 17:24:44 10° SSE
IDEFIX/ARIANE 42P 2.7 17:16:15 10° SSE 17:21:27 84° WSW 17:26:45 10° NNW
Lacrosse 5 rocket 1.1 17:19:51 10° NW 17:23:37 66° NE 17:27:33 10° SE
Cosmos 44 Rocket 3.8 17:19:24 10° SW 17:24:30 67° NW 17:29:32 10° NNE
Aureole 2 Rocket 3.2 17:23:28 10° S 17:27:00 41° ESE 17:30:50 10° NNE
MSX 3.8 17:24:42 10° SSE 17:30:24 80° ENE 17:36:10 10° NNW
BREEZE-M DEB (TANK) 3.1 17:28:30 10° SSW 17:30:51 29° SE 17:33:02 10° ENE
Cosmos 372 Rocket 3.9 17:26:29 10° NNW 17:31:33 64° ENE 17:36:36 10° SSE
AQUARIUS 4.5 17:27:53 10° S 17:32:22 74° WSW 17:36:53 10° NNW
USA 116 3.5 17:30:38 10° N 17:33:47 66° WNW 17:36:50 10° SSW
Cosmos 1626 3.6 17:31:47 10° SE 17:34:24 18° E 17:37:01 10° NE
OTV 4 3.4 17:32:56 10° WSW 17:34:34 14° SSW 17:36:11 10° S
Cosmos 2219 Rocket 2.7 17:29:21 10° SW 17:34:57 63° WNW 17:40:33 10° NNE
Cosmos 540 Rocket 3.5 17:31:47 10° SSW 17:36:57 82° ESE 17:42:08 10° NNE
Cosmos 1328 3.8 17:33:19 10° S 17:37:15 89° W 17:41:13 10° N
YAOGAN 1 2.8 17:32:57 10° S 17:37:16 75° WSW 17:41:37 10° NNW
Cosmos 2333 Rocket 2.4 17:32:04 10° SSW 17:37:42 76° WNW 17:43:24 10° NNE
COSMO-SKYMED 1 3.0 17:33:41 10° NNE 17:37:50 43° E 17:41:58 10° S
Cosmos 304 Rocket 4.3 17:34:24 10° S 17:38:53 40° ESE 17:43:23 10° NE
BREEZE M DEB (TANK) 1.7 17:36:02 10° NW 17:39:03 45° NNE 17:40:57 11° E
USA 215 3.7 17:38:58 10° E 17:45:07 45° NNE 17:51:16 10° NW
Cosmos 2151 2.9 17:41:17 10° S 17:45:30 84° E 17:49:42 10° N
CZ-4 R/B 3.1 17:43:31 10° SSW 17:47:07 36° W 17:50:45 10° NNW
Cosmos 2278 Rocket 2.5 17:41:38 10° NNW 17:47:20 76° WSW 17:52:58 10° SSE
Cosmos 1666 Rocket 4.5 17:43:52 10° SE 17:47:28 26° E 17:51:08 10° NNE
Cosmos 1726 2.5 17:44:56 10° NNW 17:48:42 71° W 17:52:27 10° S
Cosmos 1455 3.2 17:47:29 10° NNE 17:50:37 24° ENE 17:53:43 10° SE
Resurs 01 Rocket 3.1 17:49:19 11° E 17:51:48 16° ENE 17:54:32 10° NNE
Cosmos 1703 3.6 17:50:11 10° SSE 17:53:51 42° E 17:57:33 10° NNE
SJ-6B 3.8 17:51:00 10° SE 17:54:30 28° ENE 17:58:03 10° N
Lacrosse 5 3.9 17:52:52 10° NW 17:55:47 15° N 17:58:43 10° NNE
Cosmos 1900 4.3 17:56:32 10° NNW 18:01:28 63° NE 18:06:25 10° SE
Cosmos 2279 Rocket 4.0 17:57:56 10° N 18:04:11 87° E 18:10:25 10° S
Cosmos 1300 4.3 18:06:47 10° NNW 18:10:23 38° W 18:13:57 10° SSW
Cosmos 1151 Rocket 4.5 18:06:41 10° NNW 18:10:43 40° W 18:14:44 10° SSW
Cosmos 2237 Rocket 2.9 18:06:15 10° SW 18:11:43 53° WNW 18:17:16 10° NNE
Cosmos 2369 Rocket 3.7 18:11:39 10° N 18:15:09 17° NE 18:15:09 17° NE
Lacrosse 4 Rocket 2.1 18:14:09 10° N 18:17:47 31° NE 18:18:28 29° ENE
SL-16 R/B 2.1 18:13:41 10° SSW 18:19:19 80° ESE 18:24:59 10° NNE
CENTAUR R/B 4.3 18:14:39 10° W 18:19:54 25° NNW 18:25:40 10° NNE
Cosmos 1340 Rocket 3.3 18:17:20 10° SSW 18:21:13 60° WNW 18:25:07 10° N
Cosmos 1484 Rocket 4.3 18:18:04 10° SSW 18:21:47 40° W 18:25:35 10° NNW
Cosmos 2242 Rocket 3.9 18:18:25 10° N 18:22:36 40° ENE 18:26:47 10° SSE
Nadezhda 4 Rocket 4.0 18:18:06 10° S 18:24:16 64° E 18:30:31 10° NNE
ALOS 2.7 18:20:38 10° SE 18:24:53 37° ENE 18:29:10 10° N
USA 229 DEB 3.9 18:19:09 10° S 18:25:40 48° ESE 18:29:43 23° NE
Cosmos 1805 Rocket 3.7 18:21:14 10° S 18:25:41 80° W 18:30:10 10° N
USA 229 4.0 18:19:16 10° S 18:25:46 47° ESE 18:29:47 23° NE
SKYMED 2 4.3 18:21:41 10° N 18:25:57 55° WNW 18:30:11 10° SSW
Cosmos 1184 Rocket 2.8 18:23:38 10° S 18:26:55 56° E 18:27:44 42° NE
Spot 2 Rocket 3.9 18:22:24 10° SE 18:27:00 37° ENE 18:31:37 10° N
Cosmos 2297 4.0 18:25:31 10° NNW 18:31:13 71° WSW 18:36:54 10° SSE
Meteor 1-28 Rocket 3.8 18:31:01 10° N 18:34:40 56° WNW 18:38:18 10° SSW
Cosmos 292 Rocket 4.4 18:31:07 10° SSE 18:35:12 34° ESE 18:35:12 34° ESE
Cosmos 1869 3.4 18:32:08 10° N 18:36:07 52° E 18:40:02 10° SSE
Iridium 4 Rocket 3.2 18:32:10 10° SSE 18:36:30 49° E 18:38:16 30° NNE
Cosmos 1461 3.4 18:34:50 10° SW 18:38:56 54° NW 18:41:08 24° NNE
Sich 1 3.1 18:36:23 10° S 18:40:49 84° W 18:45:17 10° N
Cosmos 1538 Rocket 4.1 18:36:46 10° SSW 18:42:03 78° WNW 18:46:59 12° NNE
Cosmos 1092 Rocket 3.9 18:39:22 10° S 18:45:39 68° E 18:51:57 10° NNE
Cosmos 1633 Rocket 3.1 18:45:23 10° SSW 18:49:47 77° W 18:53:52 12° N
Cosmos 923 Rocket 4.0 18:44:46 10° S 18:49:50 56° ESE 18:50:56 46° ENE
FENGYUN 3A 3.5 18:44:48 10° SSE 18:50:05 65° ENE 18:55:26 10° N
Abrixas 4.2 18:48:53 10° WNW 18:50:53 26° NW 18:50:53 26° NW
BREEZE-M DEB (TANK) 3.7 18:53:08 10° WNW 18:54:14 20° NW 18:54:14 20° NW
Cosmos 1356 Rocket 4.3 18:51:51 10° SSW 18:55:41 45° WNW 18:59:17 12° N
Cosmos 1680 Rocket 3.7 18:51:43 10° S 18:56:20 48° ESE 18:56:20 48° ESE
SL-19 R/B 4.2 18:52:10 10° SSE 18:58:03 89° ENE 19:03:42 10° NNW
FREGAT/IRIS 4.0 18:56:40 10° S 18:59:34 39° W 19:02:29 10° NNW
Aureole 1 Rocket 3.9 18:55:07 10° SSW 19:00:32 88° WNW 19:07:42 10° NNE
Lacrosse 5 rocket 4.2 19:00:14 10° W 19:02:26 15° WSW 19:04:42 10° SSW
ATLAS 5 CENTAUR R/B 3.9 19:02:22 10° NNW 19:05:20 20° NNE 19:05:20 20° NNE
Cosmos 1626 4.2 19:06:21 10° SW 19:09:34 27° WNW 19:12:49 10° NNW
Cosmos 2195 Rocket 4.3 19:03:48 10° S 19:09:50 68° E 19:13:16 27° NNE
BREEZE-M DEB (TANK) 4.5 18:58:52 10° W 19:15:01 50° N 19:16:12 44° NNE
NOSS 3-1 (C) 4.4 19:12:34 10° S 19:15:41 29° SSE 19:15:41 29° SSE
FengYun 1-2 T 4.5 19:14:28 10° S 19:20:00 67° WSW 19:25:31 10° NNW
Cosmos 1603 3.6 19:18:23 10° SSW 19:24:00 83° WNW 19:24:33 73° N
Cosmos 1943 Rocket 4.2 19:20:02 10° N 19:21:01 14° N 19:21:01 14° N
Resurs 01 Rocket 2.3 19:26:51 43° SW 19:27:50 53° W 19:32:13 10° NNW
USA 215 3.5 19:24:58 34° SSE 19:27:56 65° SW 19:34:28 10° NW
ATLAS 3B R/B 4.4 19:28:12 10° NNW 19:31:30 17° NNE 19:31:30 17° NNE
CZ-4C R/B 4.1 19:32:04 10° NNW 19:35:48 24° N 19:35:48 24° N
Cosmos 1655 Rocket 4.2 19:32:21 10° S 19:37:30 61° S 19:37:30 61° S
Lacrosse 5 4.1 19:36:45 10° NNW 19:38:19 16° NNW 19:38:19 16° NNW
Lacrosse 4 Rocket 3.9 19:53:08 10° NW 19:54:54 19° WNW 19:54:54 19° WNW
Cosmos 2369 Rocket 3.7 19:54:22 10° NNW 19:56:59 28° NNW 19:56:59 28° NNW
ALOS 4.5 19:58:43 10° SSW 20:02:25 23° W 20:06:08 10° NW
